Simultaneous Nadir Overpasses (SNOs) Predictions

Prediction of SNOs between METOP-B and NOAA-19 Satellite Orbit:

Table of predicted SNOs for the next 14.0 days since TLE Epoch: 4/17/2021
Index Date (METOP-B) Time (METOP-B) Lat,Lon (METOP-B) SZA (METOP-B ) Date (NOAA-19) Time (NOAA-19) Lat,Lon (NOAA-19) SZA (NOAA-19 ) Distance(km) Time Diff (sec)
1 04/27/2021 17:50:12 -80.50, 120.20 112.43 04/27/2021 17:49:08 -80.48, 120.23 112.46 2.06 64
2 04/27/2021 18:40:53 80.50, -72.53 67.56 04/27/2021 18:40:08 80.49, -72.68 67.52 2.93 45
3 04/27/2021 19:31:34 -80.49, 94.70 112.47 04/27/2021 19:31:08 -80.48, 94.86 112.48 3.22 26
4 04/27/2021 20:22:15 80.49, -98.02 67.51 04/27/2021 20:22:08 80.49, -98.04 67.51 0.49 7
5 04/27/2021 21:12:56 -80.48, 69.21 112.52 04/27/2021 21:13:09 -80.49, 69.15 112.51 1.55 13
6 04/27/2021 22:03:37 80.48,-123.51 67.47 04/27/2021 22:04:08 80.48,-123.41 67.49 1.94 31
7 04/27/2021 22:54:18 -80.47, 43.72 112.56 04/27/2021 22:55:09 -80.48, 43.78 112.53 1.93 51



Historial Predications of SNOs between METOP-B and NOAA-19
